CLX866 ELLX-BIKF

Flight info

Callsign CLX866
Flight time N/A
Altitude 36000
Route DIK DCT LNO DCT FRT DCT EKROS DCT IFTAZ DCT MIMVA DCT BAZNA DCT NESDI DCT ORTAV/M082F360 DCT H6012 DCT H6114 DCT H6217 DCT ALDAN DCT ASRUN ASRUN4N
Aircraft B748/H-SDE3FGHIM1M2RWXY/LB1

Departure

Time 2026-05-08 08:49
Airport Luxembourg-Findel International Airport (ELLX)

Arrival

Time N/A
Airport Keflavik International Airport (BIKF)
Time Latitude Longitude Altitude Speed Heading
2026-05-08 08:25 49.63602 6.22638 1208 ft 0 kts 239°
2026-05-08 08:36 49.63602 6.22639 1208 ft 1 kts 239°
2026-05-08 08:36 49.63614 6.22670 1206 ft 4 kts 239°
2026-05-08 08:36 49.63626 6.22703 1206 ft 3 kts 239°
2026-05-08 08:37 49.63642 6.22730 1206 ft 4 kts 188°
2026-05-08 08:37 49.63664 6.22720 1205 ft 4 kts 147°
2026-05-08 08:37 49.63673 6.22711 1205 ft 2 kts 150°
2026-05-08 08:40 49.63659 6.22724 1205 ft 7 kts 148°
2026-05-08 08:40 49.63601 6.22787 1206 ft 10 kts 147°
2026-05-08 08:41 49.63535 6.22848 1207 ft 12 kts 149°
2026-05-08 08:41 49.63494 6.22859 1209 ft 5 kts 186°
2026-05-08 08:41 49.63473 6.22832 1209 ft 7 kts 229°
2026-05-08 08:41 49.63435 6.22743 1209 ft 9 kts 249°
2026-05-08 08:42 49.63393 6.22628 1209 ft 15 kts 239°
2026-05-08 08:42 49.63329 6.22466 1209 ft 19 kts 241°
2026-05-08 08:42 49.63268 6.22275 1209 ft 20 kts 246°
2026-05-08 08:42 49.63210 6.22074 1208 ft 22 kts 245°
2026-05-08 08:43 49.63140 6.21851 1207 ft 24 kts 244°
2026-05-08 08:43 49.63068 6.21623 1207 ft 24 kts 244°
2026-05-08 08:43 49.62993 6.21390 1209 ft 24 kts 243°
2026-05-08 08:43 49.62917 6.21155 1206 ft 23 kts 249°
2026-05-08 08:44 49.62859 6.20921 1206 ft 24 kts 249°
2026-05-08 08:44 49.62791 6.20714 1206 ft 16 kts 226°
2026-05-08 08:44 49.62701 6.20606 1207 ft 16 kts 217°
2026-05-08 08:44 49.62618 6.20494 1207 ft 15 kts 229°
2026-05-08 08:45 49.62551 6.20375 1207 ft 15 kts 229°
2026-05-08 08:45 49.62485 6.20248 1208 ft 15 kts 236°
2026-05-08 08:45 49.62430 6.20099 1208 ft 17 kts 242°
2026-05-08 08:45 49.62372 6.19938 1210 ft 18 kts 240°
2026-05-08 08:46 49.62309 6.19770 1208 ft 19 kts 239°
2026-05-08 08:46 49.62240 6.19591 1207 ft 20 kts 240°
2026-05-08 08:46 49.62169 6.19398 1207 ft 21 kts 240°
2026-05-08 08:46 49.62093 6.19197 1206 ft 22 kts 240°
2026-05-08 08:47 49.62015 6.18985 1206 ft 23 kts 240°
2026-05-08 08:47 49.61926 6.18784 1206 ft 22 kts 221°
2026-05-08 08:47 49.61834 6.18715 1209 ft 6 kts 165°
2026-05-08 08:47 49.61820 6.18728 1210 ft 1 kts 146°
2026-05-08 08:48 49.61798 6.18753 1211 ft 7 kts 141°
2026-05-08 08:48 49.61780 6.18819 1213 ft 9 kts 90°
2026-05-08 08:48 49.61818 6.18936 1213 ft 22 kts 59°
2026-05-08 08:48 49.62020 6.19479 1214 ft 96 kts 60°
2026-05-08 08:49 49.62462 6.20676 1224 ft 158 kts 61°
2026-05-08 08:49 49.63066 6.22313 1471 ft 190 kts 61°
2026-05-08 08:49 49.63797 6.24150 2148 ft 210 kts 58°
2026-05-08 08:49 49.64627 6.26108 2967 ft 219 kts 61°
2026-05-08 08:50 49.65330 6.28224 3448 ft 232 kts 64°
2026-05-08 08:50 49.66113 6.30507 3792 ft 249 kts 62°
2026-05-08 08:50 49.67004 6.32882 4391 ft 259 kts 60°
2026-05-08 08:50 49.67927 6.35316 5260 ft 264 kts 61°
2026-05-08 08:51 49.68849 6.37799 6109 ft 270 kts 60°
2026-05-08 08:51 49.70056 6.40047 6850 ft 276 kts 35°
2026-05-08 08:51 49.71822 6.41215 7575 ft 281 kts
2026-05-08 08:51 49.73749 6.41013 8300 ft 282 kts 339°
2026-05-08 08:52 49.75413 6.39506 9028 ft 282 kts 312°
2026-05-08 08:52 49.76574 6.37037 9803 ft 282 kts 298°
2026-05-08 08:52 49.77521 6.34392 10450 ft 287 kts 296°
2026-05-08 08:52 49.78532 6.31653 10879 ft 300 kts 300°
2026-05-08 08:53 49.79688 6.28854 11217 ft 317 kts 301°
2026-05-08 08:53 49.80922 6.25908 11532 ft 335 kts 301°
2026-05-08 08:53 49.82192 6.22766 11860 ft 354 kts 300°
2026-05-08 08:53 49.83523 6.19429 12174 ft 373 kts 300°
2026-05-08 08:54 49.84953 6.15976 12587 ft 390 kts 306°
2026-05-08 08:54 49.86904 6.12968 13251 ft 402 kts 322°
2026-05-08 08:54 49.89366 6.10828 14029 ft 412 kts 335°
2026-05-08 08:54 49.92059 6.09289 14732 ft 418 kts 340°
2026-05-08 08:55 49.94864 6.07945 15443 ft 423 kts 341°
2026-05-08 08:55 49.97678 6.06520 16134 ft 427 kts 338°
2026-05-08 08:55 50.00460 6.04835 16830 ft 431 kts 336°
2026-05-08 08:55 50.03262 6.03114 17505 ft 435 kts 338°
2026-05-08 08:56 50.06115 6.01505 18220 ft 439 kts 339°
2026-05-08 08:56 50.08999 5.99911 18837 ft 442 kts 338°
2026-05-08 08:56 50.11898 5.98239 19381 ft 445 kts 338°
2026-05-08 08:56 50.14812 5.96522 19955 ft 449 kts 338°
2026-05-08 08:57 50.17745 5.94823 20473 ft 453 kts 338°
2026-05-08 08:57 50.20723 5.93121 20970 ft 457 kts 338°
2026-05-08 08:57 50.23706 5.91402 21469 ft 460 kts 338°
2026-05-08 08:57 50.26717 5.89646 21963 ft 463 kts 338°
2026-05-08 08:58 50.29755 5.87877 22456 ft 466 kts 338°
2026-05-08 08:58 50.32810 5.86106 22922 ft 469 kts 338°
2026-05-08 08:58 50.35874 5.84327 23381 ft 472 kts 338°
2026-05-08 08:58 50.38964 5.82524 23806 ft 475 kts 338°
2026-05-08 08:59 50.42076 5.80705 24166 ft 478 kts 338°
2026-05-08 08:59 50.45200 5.78880 24521 ft 481 kts 338°
2026-05-08 08:59 50.48340 5.77044 24867 ft 483 kts 338°
2026-05-08 08:59 50.51497 5.75193 25213 ft 485 kts 338°
2026-05-08 09:00 50.54666 5.73332 25553 ft 487 kts 338°
2026-05-08 09:00 50.57850 5.71460 25895 ft 490 kts 338°
2026-05-08 09:00 50.61004 5.69436 26233 ft 491 kts 335°
2026-05-08 09:00 50.64174 5.67404 26565 ft 493 kts 336°
2026-05-08 09:01 50.67374 5.65395 26889 ft 496 kts 336°
2026-05-08 09:01 50.70574 5.63338 27222 ft 498 kts 336°
2026-05-08 09:01 50.73783 5.61237 27585 ft 500 kts 336°
2026-05-08 09:01 50.77010 5.59142 27912 ft 503 kts 336°
2026-05-08 09:02 50.80252 5.57058 28226 ft 505 kts 336°
2026-05-08 09:02 50.83512 5.54952 28616 ft 505 kts 336°
2026-05-08 09:02 50.86756 5.52838 29121 ft 504 kts 336°
2026-05-08 09:02 50.89994 5.50725 29608 ft 503 kts 336°
2026-05-08 09:03 50.93226 5.48623 30095 ft 503 kts 336°
2026-05-08 09:03 50.96425 5.46540 30521 ft 502 kts 336°
2026-05-08 09:03 50.99649 5.44432 30928 ft 501 kts 335°
2026-05-08 09:03 51.02866 5.42324 31312 ft 500 kts 335°
2026-05-08 09:04 51.06082 5.40217 31691 ft 499 kts 335°
2026-05-08 09:04 51.09296 5.38109 32077 ft 499 kts 335°
2026-05-08 09:04 51.12497 5.36005 32452 ft 498 kts 335°
2026-05-08 09:04 51.15702 5.33894 32796 ft 498 kts 335°
2026-05-08 09:05 51.18899 5.31785 33161 ft 497 kts 335°
2026-05-08 09:05 51.22092 5.29677 33522 ft 496 kts 335°
2026-05-08 09:05 51.25282 5.27568 33864 ft 496 kts 334°
2026-05-08 09:05 51.28459 5.25464 34200 ft 495 kts 334°
2026-05-08 09:06 51.31642 5.23351 34464 ft 494 kts 335°
2026-05-08 09:06 51.33747 5.21953 34657 ft 494 kts 335°
2026-05-08 09:06 51.36924 5.19842 34948 ft 494 kts 335°
2026-05-08 09:06 51.40086 5.17735 35222 ft 494 kts 335°
2026-05-08 09:07 51.43266 5.15614 35493 ft 494 kts 335°
2026-05-08 09:07 51.46435 5.13496 35778 ft 494 kts 335°
2026-05-08 09:07 51.49603 5.11377 36057 ft 493 kts 335°
2026-05-08 09:07 51.52756 5.09266 36114 ft 490 kts 335°
2026-05-08 09:08 51.59010 5.05065 36123 ft 485 kts 335°
2026-05-08 09:08 51.65220 5.00882 36125 ft 484 kts 335°
2026-05-08 09:09 51.71436 4.96683 36127 ft 484 kts 335°
2026-05-08 09:09 51.77648 4.92474 36124 ft 484 kts 335°
2026-05-08 09:10 51.83848 4.88261 36123 ft 484 kts 335°
2026-05-08 09:10 51.90137 4.83971 36149 ft 496 kts 335°
2026-05-08 09:11 51.96537 4.79598 36135 ft 501 kts 335°
2026-05-08 09:11 52.02989 4.75335 36134 ft 502 kts 336°
2026-05-08 09:12 52.09470 4.71112 36138 ft 502 kts 336°
2026-05-08 09:12 52.15965 4.66963 36137 ft 502 kts 336°
2026-05-08 09:13 52.22353 4.62440 36158 ft 497 kts 326°
2026-05-08 09:13 52.25146 4.59145 36147 ft 494 kts 315°
2026-05-08 09:13 52.27552 4.55173 36142 ft 492 kts 310°
2026-05-08 09:14 52.32275 4.47192 36149 ft 494 kts 316°
2026-05-08 09:14 52.37412 4.39694 36143 ft 494 kts 316°
2026-05-08 09:15 52.42519 4.32163 36148 ft 494 kts 315°
2026-05-08 09:15 52.47623 4.24632 36145 ft 493 kts 316°
2026-05-08 09:16 52.52728 4.17068 36156 ft 494 kts 315°
2026-05-08 09:16 52.57822 4.09496 36156 ft 494 kts 315°
2026-05-08 09:17 52.62906 4.01917 36155 ft 494 kts 315°
2026-05-08 09:17 52.67994 3.94305 36161 ft 494 kts 315°
2026-05-08 09:18 52.73077 3.86678 36162 ft 493 kts 315°
2026-05-08 09:18 52.78148 3.79040 36141 ft 494 kts 315°
2026-05-08 09:19 52.83219 3.71380 36139 ft 494 kts 315°
2026-05-08 09:19 52.88281 3.63706 36142 ft 494 kts 315°
2026-05-08 09:20 52.93344 3.56006 36140 ft 494 kts 315°
2026-05-08 09:20 52.98394 3.48300 36146 ft 494 kts 315°
2026-05-08 09:21 53.03452 3.40556 36135 ft 494 kts 315°
2026-05-08 09:23 53.20754 3.12767 36141 ft 494 kts 313°
2026-05-08 09:23 53.25589 3.04731 36144 ft 494 kts 313°
2026-05-08 09:24 53.30460 2.96637 36145 ft 494 kts 313°
2026-05-08 09:24 53.35320 2.88509 36142 ft 494 kts 313°
2026-05-08 09:25 53.40179 2.80374 36148 ft 494 kts 313°
2026-05-08 09:25 53.45029 2.72213 36138 ft 494 kts 313°
2026-05-08 09:26 53.49872 2.64043 36143 ft 494 kts 313°
2026-05-08 09:26 53.54717 2.55838 36137 ft 494 kts 313°
2026-05-08 09:27 53.59542 2.47642 36139 ft 493 kts 313°
2026-05-08 09:27 53.64368 2.39412 36139 ft 493 kts 312°
2026-05-08 09:28 53.69191 2.31162 36141 ft 493 kts 312°
2026-05-08 09:28 53.74004 2.22899 36156 ft 494 kts 312°
2026-05-08 09:29 53.78819 2.14604 36157 ft 494 kts 312°
2026-05-08 09:29 53.83616 2.06310 36152 ft 493 kts 312°
2026-05-08 09:30 53.88393 1.98023 36151 ft 490 kts 312°
2026-05-08 09:30 53.93152 1.89739 36148 ft 490 kts 312°
2026-05-08 09:31 53.97904 1.81438 36149 ft 490 kts 312°
2026-05-08 09:31 54.02651 1.73116 36157 ft 490 kts 312°
2026-05-08 09:32 54.07390 1.64779 36160 ft 490 kts 311°
2026-05-08 09:32 54.12127 1.56415 36160 ft 490 kts 312°
2026-05-08 09:33 54.16843 1.48062 36148 ft 489 kts 311°
2026-05-08 09:33 54.21642 1.39838 36151 ft 489 kts 313°
2026-05-08 09:34 54.26435 1.31567 36150 ft 489 kts 313°
2026-05-08 09:34 54.31236 1.23419 36148 ft 490 kts 313°
2026-05-08 09:35 54.36041 1.15146 36145 ft 490 kts 313°
2026-05-08 09:35 54.40849 1.06882 36153 ft 490 kts 313°
2026-05-08 09:36 54.45634 0.98612 36149 ft 486 kts 313°
2026-05-08 09:36 54.50402 0.90346 36147 ft 486 kts 312°
2026-05-08 09:37 54.55164 0.82061 36129 ft 487 kts 312°
2026-05-08 09:37 54.59917 0.73761 36129 ft 487 kts 312°
2026-05-08 09:38 54.64674 0.65427 36129 ft 487 kts 312°
2026-05-08 09:38 54.69414 0.57091 36124 ft 487 kts 312°
2026-05-08 09:39 54.74148 0.48740 36128 ft 484 kts 312°
2026-05-08 09:39 54.78851 0.40409 36129 ft 484 kts 311°
2026-05-08 09:40 54.83552 0.32055 36129 ft 484 kts 311°
2026-05-08 09:40 54.88248 0.23681 36129 ft 484 kts 311°
2026-05-08 09:41 54.92931 0.15298 36124 ft 484 kts 311°
2026-05-08 09:41 54.97618 0.06880 36121 ft 484 kts 311°
2026-05-08 09:42 55.02301 -0.01561 36126 ft 485 kts 311°
2026-05-08 09:42 55.06958 -0.09986 36112 ft 481 kts 311°
2026-05-08 09:43 55.11592 -0.18401 36112 ft 481 kts 311°
2026-05-08 09:43 55.16225 -0.26842 36109 ft 481 kts 311°
2026-05-08 09:44 55.20850 -0.35301 36109 ft 481 kts 310°
2026-05-08 09:44 55.25466 -0.43772 36113 ft 481 kts 310°
2026-05-08 09:45 55.30059 -0.52233 36108 ft 482 kts 310°
2026-05-08 09:45 55.34682 -0.60776 36108 ft 482 kts 310°
2026-05-08 09:46 55.39293 -0.69331 36105 ft 482 kts 310°
2026-05-08 09:46 55.43902 -0.77912 36105 ft 482 kts 310°
2026-05-08 09:47 55.48501 -0.86507 36104 ft 482 kts 310°
2026-05-08 09:47 55.53100 -0.95131 36096 ft 483 kts 310°
2026-05-08 09:48 55.57707 -1.03805 36091 ft 484 kts 310°
2026-05-08 09:48 55.62304 -1.12489 36105 ft 484 kts 309°
2026-05-08 09:49 55.66877 -1.21161 36090 ft 480 kts 309°
2026-05-08 09:49 55.71426 -1.29820 36086 ft 479 kts 309°
2026-05-08 09:50 55.75961 -1.38483 36080 ft 479 kts 309°
2026-05-08 09:50 55.80503 -1.47192 36079 ft 482 kts 309°
2026-05-08 09:51 55.85055 -1.55952 36078 ft 482 kts 309°
2026-05-08 09:51 55.89593 -1.64717 36073 ft 482 kts 308°
2026-05-08 09:52 55.94131 -1.73513 36074 ft 480 kts 308°
2026-05-08 09:52 55.98647 -1.82303 36068 ft 481 kts 308°
2026-05-08 09:53 56.02396 -1.89624 36069 ft 481 kts 308°
2026-05-08 09:53 56.06911 -1.98470 36069 ft 480 kts 308°
2026-05-08 09:54 56.11404 -2.07305 36058 ft 480 kts 308°
2026-05-08 09:54 56.15903 -2.16187 36059 ft 480 kts 308°
2026-05-08 09:55 56.21145 -2.26578 36057 ft 480 kts 308°
2026-05-08 09:55 56.24873 -2.33995 36050 ft 482 kts 308°
2026-05-08 09:56 56.29359 -2.42949 36039 ft 483 kts 307°
2026-05-08 09:56 56.33852 -2.51954 36039 ft 483 kts 307°
2026-05-08 09:57 56.40572 -2.65486 36029 ft 483 kts 307°
2026-05-08 09:57 56.45055 -2.74557 36026 ft 483 kts 307°
2026-05-08 09:58 56.49500 -2.83586 36048 ft 483 kts 307°
2026-05-08 09:58 56.53997 -2.92752 36050 ft 483 kts 307°
2026-05-08 09:59 56.58424 -3.01815 36051 ft 484 kts 307°
2026-05-08 09:59 56.62882 -3.10972 36045 ft 484 kts 307°
2026-05-08 10:00 56.67331 -3.20150 36037 ft 484 kts 306°
2026-05-08 10:00 56.71774 -3.29349 36028 ft 483 kts 306°
2026-05-08 10:01 56.76195 -3.38539 36027 ft 484 kts 306°
2026-05-08 10:01 56.80635 -3.47805 36030 ft 486 kts 306°
2026-05-08 10:02 56.85093 -3.57145 36022 ft 489 kts 306°
2026-05-08 10:02 56.89554 -3.66527 36020 ft 488 kts 306°
2026-05-08 10:03 56.94009 -3.75935 36016 ft 489 kts 306°
2026-05-08 10:03 56.98448 -3.85345 36021 ft 488 kts 306°
2026-05-08 10:04 57.02882 -3.94783 36014 ft 489 kts 306°
2026-05-08 10:04 57.07322 -4.04274 36020 ft 492 kts 306°
2026-05-08 10:05 57.11773 -4.13820 36010 ft 491 kts 306°
2026-05-08 10:05 57.16186 -4.23436 36004 ft 491 kts 305°
2026-05-08 10:06 57.20573 -4.33086 36003 ft 491 kts 305°
2026-05-08 10:06 57.24970 -4.42746 36003 ft 491 kts 305°
2026-05-08 10:07 57.29346 -4.52439 36003 ft 491 kts 305°
2026-05-08 10:07 57.33747 -4.62203 36003 ft 494 kts 305°
2026-05-08 10:08 57.38134 -4.71986 35998 ft 493 kts 304°
2026-05-08 10:08 57.42479 -4.81713 36010 ft 494 kts 305°
2026-05-08 10:09 57.46893 -4.91635 36007 ft 495 kts 304°
2026-05-08 10:09 57.51239 -5.01446 36003 ft 495 kts 304°
2026-05-08 10:10 57.55609 -5.11350 36030 ft 495 kts 304°
2026-05-08 10:10 57.59987 -5.21317 36004 ft 497 kts 304°
2026-05-08 10:11 57.64357 -5.31304 36009 ft 497 kts 304°
2026-05-08 10:11 57.68726 -5.41333 36006 ft 497 kts 304°
2026-05-08 10:12 57.73084 -5.51382 35986 ft 498 kts 304°
2026-05-08 10:12 57.77445 -5.61474 35989 ft 498 kts 304°
2026-05-08 10:13 57.81792 -5.71584 35993 ft 499 kts 304°
2026-05-08 10:13 57.86139 -5.81730 35996 ft 499 kts 304°
2026-05-08 10:14 57.90483 -5.91918 35985 ft 499 kts 304°
2026-05-08 10:14 57.94816 -6.02122 35983 ft 499 kts 304°
2026-05-08 10:15 57.99143 -6.12354 35986 ft 499 kts 304°
2026-05-08 10:15 58.03457 -6.22604 35976 ft 499 kts 304°
2026-05-08 10:16 58.07773 -6.32900 35971 ft 500 kts 304°